Tracking 31027 objects as of 19-Jul-2025
HD Live streaming from Space Station
objects crossing your sky now

STARLINK-30171

Track STARLINK-30171 now!
10-day predictions
STARLINK-30171 is classified as:


NORAD ID: 57469
Int'l Code: 2023-107N
Perigee: 565.4 km
Apogee: 567.0 km
Inclination: 43.0 °
Period: 95.8 minutes
Semi major axis: 6937 km
RCS: Unknown
Launch date: July 28, 2023
Source: (TBD)
Launch site: AIR FORCE EASTERN TEST RANGE (AFETR)
Your satellite tracking list
FENGYUN 1C DEB
Track 1 satellite(s)




NASA's NSSDC Master Catalog

Two Line Element Set (TLE):
1 57469U 23107N   25199.60665037 -.00000271  00000-0 -49688-5 0  9995
2 57469  43.0028 170.7036 0001158 289.9916  70.0802 15.02535106109907
Source of the keplerian elements: AFSPC